[[{"header":{"parameterUnit":"m.s-1","parameterCategory":1,"la1":30.2991,"la2":30.254,"lo1":-89.0895,"lo2":-89.0444,"dy":0.0017,"dx":0.0017,"nx":28,"ny":28,"refTime":"2024-04-19T21:00:00:Z","depth":0,"parameterNumber":2,"parameterNumberName":"U-component_of_WINDS"},"data":[0,0,0,0,0,0,0,0,0,0,0,0,0,0,0,0,0,0,0,0,0,0,0,0,0,0,0,0,0,0,0,0,0,0,0,0,0,0,0,0,0,0,0,0,0,0,0,0,0,0,0,0,0,0,0,0,0,0,0.0601,0.0601,0,0.0633,0.0633,0.0633,0.0639,0.0639,0.0638,0.0638,0.0671,0.0672,0.0673,0,0,0,0,0,0,0,0,0,0,0,0,0,0.0545,0.0546,0.0601,0.0601,0.0602,0.0633,0.0633,0.0633,0.0639,0.0639,0.0638,0.0638,0.0671,0.0672,0.0673,0,0,0,0,0,0,0,0,0,0,0,0,0,0.0572,0.0546,0.0601,0.0608,0.0609,0.0633,0.0633,0.0634,0.0639,0.0639,0.0638,0.0638,0.067,0.0672,0.0674,0.0692,0,0,0.0679,0.068,0,0,0,0,0,0,0,0,0.0571,0.0574,0.0607,0.0608,0.0609,0.0631,0.0625,0.0653,0.0639,0.0628,0.0638,0.0638,0.0658,0.0661,0.0668,0.0694,0.0695,0.0679,0.068,0.0681,0.0681,0,0,0,0,0,0,0,0.0569,0.0573,0.0614,0.0607,0.0608,0.061,0.0613,0.0631,0.0645,0.0629,0.0629,0.0633,0.0659,0.0666,0.0669,0.0696,0.0679,0.068,0.0681,0.0682,0.0738,0.0738,0,0,0,0,0,0,0.0566,0.0571,0.0613,0.0614,0.0588,0.0611,0.0615,0.0625,0.0645,0.0647,0.0633,0.0633,0.0663,0.0667,0.067,0.0693,0.0681,0.0682,0.0683,0.0737,0.0738,0.0738,0,0,0,0,0,0,0.0564,0.0569,0.0611,0.0593,0.0598,0.0612,0.0623,0.0625,0.0633,0.0648,0.0651,0.0638,0.0663,0.0667,0.0686,0.0694,0.0683,0.0685,0.0737,0.0737,0.0738,0.0738,0,0,0,0,0,0,0.0563,0.0569,0.0576,0.0593,0.0599,0.0627,0.0624,0.0626,0.0636,0.0636,0.0653,0.0656,0.0663,0.0684,0.0688,0.0696,0.0686,0.0736,0.0737,0.0738,0.0738,0.0739,0.074,0,0,0,0,0,0.0561,0.0575,0.0576,0.0581,0.0609,0.0628,0.0631,0.0639,0.0636,0.0644,0.0653,0.0655,0.0692,0.0686,0.0691,0.0699,0.0736,0.0737,0.0738,0.0737,0.0739,0.074,0,0,0,0,0,0,0.0559,0.0578,0.0579,0.06,0.0612,0.0629,0.0638,0.0641,0.0655,0.0654,0.0664,0.0668,0.0686,0.0694,0.0687,0.0718,0.0714,0.0716,0.0712,0.0713,0.0714,0.0712,0.0687,0,0,0,0,0,0.0561,0.0575,0.059,0.0607,0.0613,0.0624,0.0633,0.0638,0.0651,0.0657,0.0668,0.0681,0.0695,0.0705,0.0719,0.0739,0.0742,0.0747,0.0748,0.0749,0.0751,0.0761,0.0763,0.0742,0.0742,0.0742,0,0,0.0565,0.0577,0.0585,0.0607,0.0617,0.0631,0.0629,0.0644,0.0654,0.0659,0.0678,0.0686,0.0701,0.072,0.073,0.0728,0.0757,0.075,0.0751,0.0752,0.0762,0.0765,0.0766,0.0742,0.0742,0.0742,0,0,0.0581,0.0591,0.0606,0.0616,0.0631,0.0638,0.0642,0.0658,0.0663,0.0682,0.0685,0.0698,0.0723,0.0733,0.0742,0.0759,0.0762,0.0763,0.077,0.078,0.0782,0.0783,0.0789,0.0791,0.0765,0.0765,0.0765,0,0.0584,0.0605,0.0613,0.0627,0.0637,0.0641,0.0655,0.0665,0.0684,0.069,0.0688,0.0719,0.0729,0.0751,0.0755,0.0762,0.0766,0.0762,0.0781,0.0782,0.0784,0.079,0.0792,0.0765,0.0765,0.0765,0.0765,0,0.0609,0.0623,0.0633,0.0651,0.0661,0.0676,0.0685,0.0695,0.0698,0.0706,0.0724,0.0737,0.0753,0.0759,0.0763,0.0781,0.0779,0.0779,0.0775,0.0786,0.0792,0.0794,0.0765,0.0765,0.0765,0.0765,0,0,0.0625,0.0646,0.0649,0.0657,0.0674,0.0685,0.0699,0.0715,0.0723,0.0736,0.0748,0.0768,0.0767,0.0777,0.0782,0.0791,0.0804,0.0789,0.079,0.0792,0.0824,0.0824,0.0827,0.0805,0.0806,0.0806,0.0823,0,0.0642,0.0668,0.0674,0.0696,0.071,0.0713,0.0726,0.0737,0.0744,0.0757,0.0764,0.0779,0.0777,0.0782,0.0791,0.08,0.0811,0.0799,0.0817,0.0817,0.0813,0.083,0.0831,0.0846,0.0825,0.0825,0.0826,0,0.0665,0.0678,0.0701,0.0715,0.0721,0.0732,0.0747,0.0758,0.0771,0.0776,0.0786,0.079,0.0805,0.08,0.082,0.0812,0.082,0.0825,0.0826,0.0828,0.0822,0.0833,0.0851,0.0853,0.0829,0.0829,0.0829,0,0.0674,0.0697,0.0714,0.0721,0.0738,0.0745,0.0753,0.0765,0.0774,0.0786,0.0792,0.0806,0.0814,0.0825,0.0832,0.0828,0.0852,0.0848,0.0856,0.0856,0.0862,0.0861,0.0882,0.0866,0.0866,0.0866,0.0866,0,0.0693,0.0707,0.0718,0.0729,0.0744,0.0751,0.0767,0.0774,0.0785,0.0797,0.0801,0.0811,0.0821,0.0833,0.0839,0.0855,0.0858,0.0862,0.0864,0.0862,0.0861,0.0867,0.0866,0.0867,0.0867,0.0866,0.0866,0,0.0706,0.0714,0.0733,0.0747,0.0751,0.0761,0.0773,0.0783,0.079,0.0805,0.0809,0.082,0.0834,0.0842,0.086,0.0864,0.0882,0.0883,0.0878,0.0878,0.0886,0.0885,0.0911,0.0915,0.0897,0.0897,0.0897,0,0.0717,0.0728,0.0743,0.0751,0.0759,0.0771,0.078,0.0787,0.0796,0.0811,0.0819,0.0833,0.0845,0.0868,0.0877,0.0891,0.0892,0.09,0.0895,0.0892,0.0893,0.0892,0.0893,0.0902,0.0902,0.0902,0.0902,0,0.0737,0.074,0.0752,0.0766,0.0776,0.0787,0.0798,0.0804,0.0813,0.0823,0.0837,0.0846,0.0864,0.0879,0.0893,0.09,0.0903,0.0904,0.0906,0.0905,0.0901,0.0903,0.088,0.0903,0.0903,0.0903,0.0903,0.0903,0.0749,0.0759,0.0771,0.0784,0.0793,0.0803,0.0813,0.082,0.0832,0.0847,0.0851,0.0866,0.0878,0.0897,0.0905,0.0917,0.0915,0.0919,0.092,0.0921,0.0921,0.0899,0.0919,0.0919,0.0919,0.0919,0.0919,0,0.0769,0.0776,0.0788,0.0803,0.0814,0.0814,0.0826,0.0835,0.0848,0.0858,0.087,0.0886,0.0899,0.091,0.0923,0.0931,0.0932,0.0934,0.0934,0.0935,0.0922,0.0918,0.0933,0.0933,0.0933,0.0933,0.0933,0.0933,0.078,0.0796,0.08,0.082,0.0828,0.0842,0.0849,0.0858,0.0867,0.0884,0.0895,0.0902,0.0912,0.0926,0.0939,0.0941,0.0946,0.0948,0.0951,0.0938,0.0936,0.0935,0.0932,0.0949,0.0949,0.0963,0.0964,0.0964]},{"header":{"parameterUnit":"m.s-1","parameterCategory":1,"la1":30.2991,"la2":30.254,"lo1":-89.0895,"lo2":-89.0444,"dy":0.0017,"dx":0.0017,"nx":28,"ny":28,"refTime":"2024-04-19T21:00:00:Z","depth":0,"parameterNumber":3,"parameterNumberName":"V-component_of_WINDS"},"data":[0,0,0,0,0,0,0,0,0,0,0,0,0,0,0,0,0,0,0,0,0,0,0,0,0,0,0,0,0,0,0,0,0,0,0,0,0,0,0,0,0,0,0,0,0,0,0,0,0,0,0,0,0,0,0,0,0,0,1.6984,1.6984,0,1.6989,1.6989,1.6989,1.6964,1.6963,1.6962,1.6961,1.6966,1.6967,1.6967,0,0,0,0,0,0,0,0,0,0,0,0,0,1.695,1.6951,1.6984,1.6984,1.6984,1.6989,1.6989,1.6989,1.6964,1.6963,1.6962,1.6961,1.6965,1.6966,1.6967,0,0,0,0,0,0,0,0,0,0,0,0,0,1.6961,1.6951,1.6984,1.6972,1.6971,1.6989,1.6989,1.6989,1.6964,1.6963,1.6962,1.6961,1.6965,1.6966,1.6968,1.6997,0,0,1.6971,1.6972,0,0,0,0,0,0,0,0,1.696,1.6962,1.6973,1.6973,1.6971,1.6974,1.6979,1.6992,1.6964,1.6966,1.6961,1.696,1.6969,1.697,1.6974,1.6997,1.6997,1.6971,1.6972,1.6973,1.6973,0,0,0,0,0,0,0,1.696,1.6962,1.6986,1.6974,1.6972,1.6966,1.6966,1.6981,1.6974,1.6966,1.6964,1.6965,1.6969,1.6973,1.6974,1.6997,1.6971,1.6972,1.6973,1.6974,1.7045,1.7047,0,0,0,0,0,0,1.6961,1.6961,1.6985,1.6986,1.6963,1.6967,1.6968,1.6975,1.6974,1.6973,1.6966,1.6964,1.6971,1.6972,1.6974,1.7008,1.6973,1.6974,1.6974,1.7044,1.7046,1.7047,0,0,0,0,0,0,1.696,1.6963,1.6985,1.6973,1.6975,1.6969,1.6977,1.6975,1.6979,1.6974,1.6972,1.6972,1.697,1.6972,1.6991,1.7008,1.6974,1.6975,1.7043,1.7045,1.7046,1.7078,0,0,0,0,0,0,1.6959,1.6963,1.6974,1.6974,1.6976,1.7003,1.6978,1.6976,1.6981,1.6979,1.6978,1.6977,1.6969,1.699,1.6993,1.7009,1.6976,1.7041,1.7044,1.7046,1.7075,1.7081,1.7085,0,0,0,0,0,1.6958,1.6983,1.6975,1.6978,1.699,1.7004,1.7006,1.6997,1.6983,1.6994,1.6991,1.6977,1.7006,1.6992,1.6995,1.7012,1.704,1.7043,1.7046,1.7073,1.708,1.7085,0,0,0,0,0,0,1.6985,1.6982,1.6974,1.6999,1.7002,1.7,1.7014,1.7004,1.701,1.7008,1.6995,1.6995,1.7017,1.7016,1.7001,1.7041,1.7021,1.7024,1.704,1.7046,1.7051,1.7051,1.6977,0,0,0,0,0,1.6994,1.7006,1.7003,1.7026,1.7028,1.7021,1.7026,1.7019,1.7022,1.7023,1.7021,1.7024,1.7033,1.704,1.7048,1.7075,1.7075,1.7088,1.7093,1.7097,1.71,1.7115,1.7121,1.7056,1.7056,1.7056,0,0,1.7013,1.7013,1.7021,1.7031,1.7033,1.7045,1.7022,1.7036,1.7045,1.7025,1.7043,1.7042,1.7044,1.7068,1.7078,1.7068,1.7118,1.71,1.7104,1.7105,1.7118,1.7124,1.713,1.7058,1.7057,1.7057,0,0,1.7053,1.7054,1.7074,1.7076,1.7079,1.7074,1.7078,1.7078,1.7076,1.7095,1.708,1.709,1.7107,1.7109,1.7113,1.7154,1.7142,1.7157,1.7182,1.7197,1.7202,1.7206,1.7221,1.7227,1.716,1.716,1.716,0,1.7076,1.7095,1.7085,1.71,1.7105,1.7087,1.7106,1.7109,1.7114,1.7118,1.7106,1.7127,1.7127,1.7151,1.7161,1.7164,1.7169,1.7157,1.7202,1.7206,1.721,1.7225,1.723,1.7162,1.7162,1.7162,1.7161,0,1.7123,1.7136,1.7151,1.7157,1.7164,1.7181,1.7173,1.718,1.7172,1.7169,1.7188,1.7187,1.7196,1.7201,1.7193,1.7224,1.7217,1.7204,1.7184,1.7219,1.7232,1.7237,1.7165,1.7164,1.7163,1.7163,0,0,1.7181,1.7182,1.7187,1.719,1.7192,1.7202,1.7218,1.7226,1.7233,1.7237,1.7251,1.7265,1.7253,1.7257,1.7249,1.7261,1.7295,1.7246,1.7246,1.7256,1.7329,1.734,1.7346,1.7286,1.7287,1.7288,1.7329,0,1.7221,1.725,1.7241,1.7269,1.7282,1.7265,1.7279,1.7281,1.7278,1.7288,1.7284,1.7295,1.7278,1.728,1.7292,1.7288,1.7309,1.7285,1.7299,1.73,1.73,1.7353,1.7364,1.7403,1.7334,1.7335,1.7336,0,1.7272,1.7279,1.7309,1.7309,1.7314,1.7327,1.7334,1.7343,1.7345,1.7342,1.7347,1.7336,1.7352,1.7331,1.7352,1.7336,1.7341,1.734,1.7342,1.7343,1.732,1.7357,1.7415,1.7421,1.7344,1.7343,1.7343,0,1.7312,1.7329,1.7349,1.7352,1.7352,1.7362,1.7362,1.7363,1.7369,1.7375,1.7379,1.7386,1.7391,1.7396,1.7388,1.7374,1.7411,1.7389,1.7409,1.7409,1.7418,1.7418,1.7479,1.742,1.742,1.742,1.742,0,1.7359,1.7378,1.7367,1.738,1.7401,1.739,1.7411,1.7409,1.7411,1.7422,1.7408,1.7419,1.7407,1.7417,1.741,1.7429,1.7431,1.7429,1.7427,1.7431,1.7431,1.7435,1.7432,1.7422,1.7421,1.7421,1.7421,0,1.7407,1.7401,1.7422,1.7421,1.7421,1.7436,1.7435,1.7446,1.7442,1.7457,1.746,1.7453,1.7464,1.7457,1.7467,1.7463,1.7488,1.7482,1.7488,1.7486,1.7507,1.7505,1.7573,1.7581,1.7516,1.7517,1.7518,0,1.7438,1.7452,1.7453,1.746,1.7461,1.7473,1.7479,1.7468,1.7475,1.7479,1.749,1.75,1.7507,1.7525,1.7521,1.753,1.7524,1.7547,1.7525,1.7529,1.7525,1.7525,1.7527,1.7552,1.7553,1.7553,1.7554,0,1.7492,1.7489,1.7498,1.7506,1.7514,1.752,1.7524,1.7531,1.7521,1.7529,1.754,1.7546,1.7557,1.7567,1.7574,1.7574,1.7563,1.7561,1.7566,1.757,1.7573,1.7572,1.7501,1.7559,1.7559,1.7558,1.7558,1.7558,1.7533,1.7545,1.7548,1.7559,1.7561,1.7566,1.7577,1.7574,1.7584,1.7592,1.7586,1.7599,1.7601,1.7609,1.7611,1.7621,1.7612,1.7619,1.7621,1.7623,1.7626,1.7571,1.7622,1.7622,1.7622,1.7622,1.7621,0,1.7588,1.7588,1.7599,1.7606,1.7615,1.7603,1.7607,1.7615,1.7628,1.7631,1.7638,1.7652,1.7661,1.7658,1.7667,1.7675,1.767,1.7678,1.7678,1.7678,1.7634,1.7629,1.7682,1.7682,1.7682,1.7682,1.7682,1.7682,1.7617,1.7638,1.7634,1.7655,1.7656,1.7669,1.7673,1.7677,1.768,1.7695,1.7703,1.7701,1.7702,1.771,1.7719,1.7717,1.7721,1.7731,1.7728,1.7687,1.7681,1.7675,1.7671,1.7732,1.7732,1.7772,1.7772,1.7773]}]]